RH
77 84 86 92 98 98 97 93 82 64 56 51 48 49 47 48 52 47 39 32 23 20 21 21 20 19 15 20 15 12 12 13 12 11 11 11 13 12 12 11 10 8 8 10 8 10 45
71 72 79 80 84 93 94 93 94 85 65 55 52 50 50 48 48 50 42 31 22 21 23 22 24 23 24 20 10 12 13 12 12 11 11 11 12 12 12 13 10 8 10 9 7 9 43
64 65 66 72 74 81 86 93 96 95 87 67 55 53 53 52 50 47 43 30 20 19 24 25 27 30 31 25 8 9 9 10 10 11 12 12 12 15 16 16 11 10 12 9 8 8 32
58 54 57 62 66 70 80 91 99 100 96 88 71 59 56 54 53 50 43 26 19 18 18 26 28 34 42 14 13 8 8 8 9 12 11 11 13 15 15 12 12 12 10 13 11 13 35
74 62 54 50 59 64 68 79 89 98 100 96 87 72 65 60 54 52 41 21 18 17 18 24 28 40 39 18 8 8 6 8 9 10 11 12 12 16 18 19 21 15 16 16 14 14 15
91 80 64 60 50 50 62 70 81 86 93 95 94 80 74 66 61 59 37 24 18 17 24 33 40 36 25 13 10 12 12 11 12 11 14 16 18 21 22 20 23 17 18 17 19 16 49
89 87 72 62 59 47 44 57 68 85 88 88 94 90 74 74 66 66 39 37 36 46 45 37 33 28 22 18 17 14 10 10 13 14 19 18 25 28 21 18 17 14 15 14 18 15 46
74 76 63 55 57 53 52 46 53 71 88 91 87 89 85 81 74 61 49 70 42 40 56 36 32 30 24 19 22 20 17 16 18 22 19 21 24 19 17 17 17 16 16 16 16 15 16
75 69 61 60 51 54 51 52 48 55 75 89 94 82 95 85 82 61 44 47 32 43 64 36 25 23 21 18 21 21 17 18 19 23 22 24 19 13 14 17 17 15 17 19 19 18 17
82 79 75 52 48 49 52 49 49 49 62 85 96 91 93 96 80 53 53 23 40 42 89 41 22 23 19 16 19 15 14 18 19 21 20 20 16 15 15 17 15 19 16 16 15 23 31
76 77 74 71 59 46 46 50 49 52 62 71 94 97 95 100 70 70 35 34 43 53 90 25 20 13 15 20 17 17 12 17 23 19 18 19 16 17 16 17 16 17 17 20 19 20 23
82 79 77 76 69 65 54 48 48 49 58 73 85 99 99 100 95 50 56 59 50 74 88 32 24 21 23 20 17 19 20 19 17 20 17 18 13 14 14 14 14 13 18 20 24 26 37
75 68 70 72 69 65 66 60 52 55 58 65 86 97 100 100 87 52 53 64 87 88 30 26 29 26 27 28 27 26 27 26 28 28 25 20 19 16 14 16 15 17 23 41 44 42 41
65 58 60 62 62 64 66 68 63 58 59 64 70 90 98 100 88 64 67 94 100 56 41 26 23 24 30 26 26 24 26 29 24 26 29 32 33 20 16 18 21 22 29 53 50 48 53
65 63 61 60 61 62 63 70 70 66 64 72 84 82 100 98 96 76 91 98 91 55 35 33 31 35 34 27 28 28 29 25 24 24 32 36 31 18 15 15 16 22 30 25 36 34 64
76 75 68 69 70 72 71 69 69 70 73 83 100 92 95 95 98 87 97 91 75 43 34 39 44 35 43 34 32 34 33 23 22 21 22 29 37 23 20 15 15 20 23 34 41 50 53
72 68 69 71 74 75 75 81 79 77 78 76 100 97 75 92 100 96 95 84 63 40 38 50 52 51 45 47 33 34 34 27 25 22 21 25 38 40 26 22 25 25 27 25 36 47 61
69 65 67 68 74 76 83 91 90 88 82 93 96 97 69 94 96 92 94 75 54 49 46 53 51 54 52 51 48 50 40 36 34 32 23 28 51 58 43 34 19 23 25 28 72 46 61
72 67 67 71 82 80 76 80 84 86 87 98 97 92 77 98 94 96 82 76 56 55 52 51 57 52 46 54 61 57 48 40 38 38 38 33 66 73 66 46 32 28 28 24 37 58 57
71 69 70 72 78 70 74 83 87 88 93 100 98 99 96 96 83 84 88 83 76 58 55 53 54 51 52 58 63 57 60 44 37 37 49 46 63 72 85 66 65 60 35 30 49 78 60
74 74 72 73 75 73 81 82 81 85 96 99 98 96 87 97 95 92 78 75 80 73 62 54 56 53 52 76 76 74 65 67 45 53 41 50 54 66 65 60 64 58 50 46 55 50 63
78 80 74 76 72 76 80 85 80 90 95 99 98 96 96 94 86 87 89 82 75 68 67 72 61 52 48 56 65 84 84 64 55 46 47 47 64 70 82 56 56 52 55 46 48 46 44
76 75 78 79 74 76 79 86 83 92 97 95 86 89 94 92 93 93 86 79 77 64 60 53 57 58 57 50 51 50 52 64 60 55 59 57 66 75 86 64 63 66 52 44 51 49 35
81 75 74 76 75 76 79 86 88 99 94 96 94 98 96 95 93 90 77 73 72 64 60 60 54 61 51 46 47 45 50 59 63 63 51 62 59 75 84 78 100 56 35 31 35 36 28
77 78 78 71 72 78 77 80 81 94 99 100 99 98 99 93 85 90 85 83 75 63 62 60 53 50 50 51 63 67 60 54 58 63 55 57 71 82 86 86 61 45 36 34 33 36 26
80 77 76 83 71 70 76 81 86 91 96 94 95 98 97 95 93 73 86 84 86 80 76 93 82 76 64 82 79 81 87 64 68 60 55 55 63 78 88 82 80 53 35 28 30 50 32
77 76 66 68 75 72 72 89 84 92 97 100 93 89 98 97 87 82 86 88 80 83 78 98 96 88 82 89 96 88 74 51 74 68 74 76 89 98 95 95 76 42 31 29 47 50 38
75 75 78 70 70 76 75 90 88 95 99 100 88 84 98 98 99 96 93 76 80 77 88 98 96 97 96 88 84 86 79 62 55 55 70 76 87 95 89 93 85 45 32 42 50 37 35
75 76 78 78 66 77 77 87 87 99 94 100 96 77 98 99 100 100 99 100 96 79 81 89 80 95 92 91 83 69 71 63 59 80 50 79 71 85 77 78 51 37 41 49 43 40 31
Wind_Speed
12 11 11 12 12 14 14 15 15 14 14 13 15 17 17 18 20 22 22 22 23 24 24 26 25 24 17 5 5 0 4 6 7 8 10 5 6 5 5 6 9 5 7 7 7 7 12
14 14 13 12 13 13 16 15 16 16 15 15 14 16 17 17 19 23 23 22 23 23 24 24 23 21 7 5 1 2 2 4 7 6 10 9 3 6 6 5 4 3 7 9 9 4 11
14 14 16 15 13 13 15 16 16 17 17 16 16 15 17 18 19 21 25 24 23 23 21 22 20 16 5 12 13 11 8 8 7 7 5 11 8 6 8 8 6 4 7 9 8 5 9
16 15 16 16 17 16 15 15 16 16 18 18 18 17 16 18 20 21 24 27 24 22 22 21 20 12 6 17 22 14 12 11 14 11 10 11 5 5 4 6 6 6 4 4 8 8 13
16 16 16 16 16 17 17 17 16 18 17 18 19 17 16 17 18 22 23 26 26 25 24 20 16 2 9 11 9 15 11 12 14 16 10 9 3 5 5 4 6 3 6 7 2 10 7
15 17 18 17 17 18 19 19 18 18 19 20 20 19 19 18 18 22 22 24 25 28 19 10 9 5 8 5 3 7 6 10 6 4 5 6 3 3 5 2 5 6 4 6 6 8 8
16 16 19 19 19 19 19 20 21 19 19 21 21 22 22 19 19 20 21 21 8 5 2 6 6 5 12 15 13 3 8 9 4 3 5 6 3 7 11 9 10 9 4 7 4 4 7
19 21 20 20 19 20 20 21 21 22 19 20 22 21 21 20 19 16 16 2 7 8 8 16 19 18 24 23 9 8 14 5 6 7 6 5 9 15 11 11 8 4 5 8 3 6 5
21 23 23 22 20 21 22 22 22 23 23 19 20 20 20 18 18 16 15 18 16 16 5 14 20 20 19 19 19 15 8 5 7 7 9 9 9 16 4 12 7 5 5 7 8 5 3
20 20 21 23 23 22 23 24 25 24 24 23 20 21 20 17 11 15 8 16 13 7 4 9 10 9 17 13 18 25 25 14 8 15 11 12 13 17 9 6 4 5 9 10 14 4 4
22 22 22 23 23 24 25 25 26 26 24 26 22 22 21 22 8 4 11 13 3 4 5 8 6 4 8 16 2 14 29 12 18 14 8 10 6 9 7 7 9 9 8 3 6 2 2
21 22 23 24 23 23 25 26 28 29 28 26 26 23 23 26 25 30 6 6 8 1 9 6 5 3 7 9 16 5 5 9 5 14 12 9 9 6 8 8 8 8 4 4 4 2 3
24 24 24 25 24 24 27 28 28 30 30 28 29 26 29 27 20 29 19 1 2 6 7 7 6 8 7 6 9 10 12 6 11 10 13 13 16 10 6 4 6 5 1 1 3 2 7
25 25 25 25 25 25 27 29 30 31 32 32 31 31 36 39 36 23 16 3 7 12 15 7 8 13 13 12 11 11 13 9 9 7 4 9 11 13 9 9 7 9 8 5 7 4 3
25 25 26 25 27 29 29 30 31 30 32 31 31 36 36 39 43 33 6 11 11 10 7 9 13 13 5 6 8 13 11 14 12 12 13 6 17 11 17 10 13 10 5 8 3 3 2
25 25 25 26 26 27 28 29 32 32 31 27 24 19 33 43 47 25 11 19 11 12 8 8 6 6 4 10 10 7 10 8 14 16 16 11 12 18 16 16 16 11 4 3 2 6 6
25 25 25 26 26 26 26 27 29 31 32 28 20 7 24 47 42 11 18 16 22 11 10 6 4 3 4 4 11 14 9 7 11 15 15 12 7 6 4 0 9 2 6 3 4 5 5
26 26 25 25 25 23 22 25 27 29 28 28 13 11 23 49 18 14 22 16 22 21 11 6 8 9 9 10 5 3 7 0 5 3 7 3 4 3 3 7 3 6 9 8 5 3 2
24 23 23 23 21 21 23 28 29 28 25 13 7 11 29 45 22 18 14 23 16 13 19 12 10 11 6 9 5 4 5 4 5 5 1 3 2 3 8 6 5 6 9 8 4 3 13
22 21 21 22 22 22 25 27 28 27 27 28 3 6 8 16 19 25 25 24 27 15 17 17 9 16 10 10 5 2 2 2 0 2 3 4 4 6 8 5 3 7 5 5 5 4 3
19 20 21 24 23 24 26 27 26 24 26 23 5 4 6 8 22 18 24 19 25 18 19 20 14 21 20 7 7 7 4 2 4 5 2 4 4 6 6 6 1 6 9 9 3 3 6
18 18 20 22 22 23 24 24 24 26 28 18 5 5 6 6 22 26 24 24 31 29 18 16 20 23 21 14 7 6 7 7 7 3 3 3 5 5 1 8 10 3 13 5 2 9 5
18 18 18 20 23 23 24 24 24 27 22 6 13 28 5 6 14 23 26 32 28 28 15 23 16 9 15 15 3 7 11 7 4 5 7 7 5 4 5 1 6 8 18 8 2 7 5
17 18 19 19 22 23 22 21 21 23 21 22 19 12 7 9 13 19 27 25 25 31 20 8 17 11 5 10 6 7 9 7 2 3 4 6 6 3 3 5 5 8 12 9 8 13 5
17 17 18 20 21 21 23 20 21 21 21 23 25 7 4 10 15 16 27 27 19 25 24 16 17 10 6 6 7 4 1 3 3 6 6 3 4 4 5 5 4 6 8 6 5 5 4
17 17 18 18 20 21 20 20 18 22 23 15 21 20 10 3 9 22 16 19 13 15 17 4 2 4 6 2 4 7 5 6 7 4 5 6 5 4 2 4 7 7 9 8 6 3 6
18 17 18 19 20 20 20 20 19 18 21 23 18 23 7 7 9 13 11 11 11 5 12 7 6 4 1 4 3 3 4 9 7 9 5 4 3 6 3 3 6 3 5 7 7 7 4
20 19 18 19 19 19 19 19 20 17 16 23 20 18 16 3 3 2 7 14 11 12 9 7 4 2 2 4 4 5 4 6 5 9 8 6 6 4 3 3 7 6 2 9 7 4 7
22 20 18 17 20 18 19 16 20 14 14 20 11 21 23 5 2 0 7 5 2 3 6 9 6 5 5 4 3 3 3 4 7 5 11 6 7 6 7 6 4 4 5 5 7 6 4
Wind_Direction
310 308 307 299 301 282 286 293 296 297 299 304 310 314 322 328 331 332 334 336 336 335 336 339 340 344 348 343 263 219 0 349 349 352 321 326 334 353 348 309 333 343 313 328 338 91 87
302 302 303 309 293 297 285 282 290 293 295 297 301 308 314 321 325 328 329 330 329 329 331 334 334 341 331 292 249 177 309 299 296 317 319 314 327 320 281 280 328 278 306 307 302 179 127
304 303 299 296 305 302 301 280 280 288 292 292 296 298 308 316 320 323 325 324 322 321 322 327 327 340 285 243 276 290 289 279 275 287 301 317 360 12 336 313 278 279 317 300 276 217 115
296 302 304 301 298 299 300 301 279 281 289 291 291 295 303 311 316 321 323 320 315 310 310 315 317 318 248 288 276 267 252 267 260 237 274 290 318 304 218 269 313 301 271 251 257 159 161
294 293 297 299 299 298 294 295 298 280 281 286 287 293 300 307 315 320 322 318 310 302 294 304 305 227 269 269 241 252 252 256 277 226 231 264 289 221 316 233 326 274 261 248 250 179 160
294 295 293 293 295 296 296 290 289 287 278 279 284 290 295 301 310 315 320 321 318 293 291 288 262 354 266 251 19 330 296 276 263 229 258 199 219 242 307 100 241 257 288 301 216 216 82
286 287 288 289 290 292 293 292 287 287 282 272 276 281 286 293 297 311 326 343 347 340 318 226 207 242 309 309 312 274 281 277 299 298 222 263 183 229 238 230 289 239 287 293 331 120 118
283 285 288 284 286 286 290 290 292 285 285 281 269 276 278 285 292 303 311 267 270 325 296 276 273 268 258 273 258 273 283 222 190 232 248 272 242 239 243 265 266 299 303 285 236 171 110
281 285 287 286 284 285 288 291 287 290 284 280 278 269 272 278 290 288 270 258 277 334 284 270 247 249 244 240 250 233 224 251 223 237 232 227 239 230 258 245 234 260 242 274 238 212 152
277 278 280 283 286 286 285 287 290 285 286 279 281 263 261 268 286 271 263 261 294 346 305 272 235 257 223 216 249 231 221 212 221 234 250 238 240 249 248 234 240 232 248 258 268 151 205
280 281 278 280 282 282 285 285 284 284 285 280 273 265 251 240 271 283 233 281 140 58 306 262 197 201 171 191 263 216 219 207 226 224 204 240 254 268 239 223 216 246 264 282 278 266 35
274 279 282 279 278 278 276 280 283 285 277 277 268 270 246 239 240 241 269 329 120 163 243 269 169 144 158 180 210 262 300 209 209 235 247 247 249 227 223 209 223 251 237 279 323 37 307
274 278 279 279 279 277 275 279 279 281 279 271 267 263 251 226 222 231 250 132 164 209 254 235 215 162 179 179 211 218 245 236 208 215 230 253 256 263 241 205 244 260 153 284 321 265 233
274 277 278 278 277 275 275 276 276 274 282 273 267 258 259 240 228 225 214 126 199 234 238 306 239 187 199 191 220 222 221 225 238 218 199 223 253 235 248 189 194 226 174 164 214 223 247
271 273 275 276 276 274 271 267 266 271 278 274 275 261 252 241 222 222 217 199 196 202 228 245 288 281 282 255 211 208 216 218 208 211 222 242 264 252 226 206 189 243 213 199 237 267 101
263 266 269 268 266 265 265 263 267 271 272 270 266 264 252 229 215 210 216 217 219 208 228 287 251 219 239 234 248 244 223 201 226 218 197 216 255 272 274 218 193 194 180 212 288 237 241
263 265 266 265 264 263 262 261 261 267 267 269 258 253 247 222 203 207 206 205 219 220 212 202 260 266 249 269 229 248 229 222 257 230 221 198 176 281 1 336 160 149 226 212 178 178 180
263 265 267 267 266 262 261 260 259 262 267 263 260 238 240 195 211 213 200 189 204 214 200 246 256 267 256 279 242 241 226 112 22 23 140 151 132 169 261 330 247 182 202 189 139 253 89
262 264 265 267 263 265 273 271 265 261 252 247 258 244 236 193 208 204 185 213 206 201 205 216 234 231 214 242 223 215 278 84 55 20 0 157 71 88 349 337 336 219 243 205 161 124 196
263 266 263 261 260 267 271 270 262 260 253 239 246 235 211 205 206 197 188 196 199 206 209 214 216 234 227 228 213 183 119 346 272 181 125 81 130 152 183 218 97 317 235 214 147 132 168
264 264 259 256 259 267 266 267 262 266 260 267 210 282 200 204 198 193 192 189 200 209 211 208 231 227 221 199 178 202 201 277 249 165 205 156 128 124 151 200 34 284 335 272 122 316 152
262 264 264 254 255 266 267 264 271 259 259 263 231 215 254 163 207 175 191 202 201 201 185 216 215 219 211 219 175 185 221 184 199 145 178 212 160 121 214 193 192 282 302 295 155 189 211
260 265 265 255 259 268 275 267 268 252 249 247 236 246 215 266 195 188 194 196 206 184 213 208 209 215 220 209 149 151 163 165 128 143 206 157 137 106 165 179 324 245 205 235 175 290 228
260 264 265 263 265 266 277 269 269 247 238 260 266 301 202 226 202 197 190 193 200 192 196 210 211 209 230 127 97 56 109 136 177 261 215 153 139 110 155 120 235 239 193 198 205 204 246
262 265 269 268 270 268 272 278 285 261 255 243 260 269 269 206 200 203 204 196 206 187 198 205 204 186 155 122 124 107 92 81 192 236 153 134 119 127 144 178 270 279 204 148 156 259 228
265 270 270 272 272 276 278 271 280 264 253 273 273 282 276 249 210 190 200 194 185 176 193 173 349 44 125 164 97 169 174 160 172 210 201 135 101 122 116 165 200 235 227 160 106 282 288
268 273 276 277 275 279 286 271 289 272 244 244 267 285 296 209 199 202 203 211 203 143 190 110 183 118 57 154 130 160 180 154 160 171 155 126 69 156 149 183 279 267 79 87 116 224 80
268 273 277 281 278 282 288 276 286 274 250 237 278 282 272 280 70 180 188 191 177 195 171 158 113 162 194 129 157 194 153 192 136 159 155 158 147 175 136 114 261 209 115 148 199 135 120
269 271 274 278 281 283 284 281 284 262 252 216 249 266 266 251 145 209 126 80 34 192 147 175 155 150 193 125 186 156 150 163 152 181 164 194 175 177 166 203 213 133 160 150 115 122 120